Regional Weather Roundup
Issued by NWS

Home | Current Version | Previous Version | Text Only | Print | Product List | Glossary Off
Versions: 1 2 3 4 5 6 7 8 9 10 11 12 13 14 15 16 17 18 19 20 21 22 23 24 25 26 27 28 29 30 31 32 33 34 35 36 37 38 39 40 41 42 43 44 45 46 47 48 49 50

000
ASUS43 KLOT 171306
RWRIL

ILLINOIS REGIONAL WEATHER ROUNDUP
NATIONAL WEATHER SERVICE CHICAGO/ROMEOVILLE IL
800 AM CDT WED SEP 17 2014

NOTE: "FAIR" INDICATES FEW OR NO CLOUDS BELOW 12,000 FEET WITH NO
SIGNIFICANT WEATHER AND/OR OBSTRUCTIONS TO VISIBILITY.

* THESE STATIONS ARE NOT UNDER NWS QUALITY CONTROL. THEY ALSO MAY NOT
  REPORT WEATHER SUCH AS PRECIPITATION OR FOG.

ILZ001-002-007-009-015-016-024-171400-
NORTHWEST ILLINOIS

CITY           SKY/WX    TMP DP  RH WIND       PRES   REMARKS
MOLINE         MOSUNNY   49  47  93 E3        30.03S
STERLING*      SUNNY     46  43  87 CALM      30.04S
$$

ILZ003-004-008-010-011-017-018-171400-
NORTH CENTRAL ILLINOIS

CITY           SKY/WX    TMP DP  RH WIND       PRES   REMARKS
ROCKFORD       MOSUNNY   47  43  86 CALM      30.07S
FREEPORT*      SUNNY     44  42  95 CALM      30.06S
ROCHELLE*      SUNNY     44  43  95 CALM      30.05S
DE KALB*       SUNNY     46  43  88 CALM      30.06S
PERU*          MOSUNNY   49  47  92 CALM      30.05S
$$

ILZ005-006-012>014-019>023-171400-
NORTHEAST ILLINOIS

CITY           SKY/WX    TMP DP  RH WIND       PRES   REMARKS
CHICAGO-OHARE  PTSUNNY   52  47  83 CALM      30.05S
CHICAGO-MIDWAY PTSUNNY   53  47  79 CALM      30.05F
AURORA         SUNNY     44  41  89 CALM      30.06S
LANSING*       SUNNY     47  47  99 CALM      30.06F FOG
JOLIET*        SUNNY     47  46  97 CALM      30.06F
WAUKEGAN       SUNNY     52  48  86 CALM      30.04S
DUPAGE AIRPORT SUNNY     48  46  93 CALM      30.05S
KANKAKEE*      MOSUNNY   47  46  99 CALM      30.06F
WHEELING       SUNNY     52  46  80 CALM      30.06S
MORRIS*        SUNNY     46  46 100 CALM      30.04F FOG
ROMEOVILLE*    SUNNY     48  48  99 CALM      30.05F
NORTHERLY ISL    N/A     54  44  69 W7          N/A
$$

LMZ740>746-171400-
SOUTHERN LAKE MICHIGAN

STATION/POSITION SKY/WX   TEMP    WIND        PRES    VSBY  WAVE
                          AIR SEA DIR/SP/G                  HT/PER
                          (F)     (DEG/KT/KT) (MB)    (MI)  (FT/S)
SOUTHERN BUOY              61 65  230/ 10/ 12 1017.5R         1/ 3
WAUKEGAN HARBOR            54     270/  6/  7   N/A
HARRISON CRIB              57     210/  8/  9   N/A
BURNHAM HARBOR             55     240/  7/  9   N/A
CALUMET HARBOR             53     230/  2/  4 1016.5F
MICHIGAN CITY              52     140/  8/ 11   N/A
MICHIGAN CITY 6N           55 65  190/  8/ 10   N/A           1/ 2
ST. JOSEPH                 57 66  160/ 12/ 14   N/A           2/ 3
$$

ILZ025>027-034>036-040-047-049-050-058-095>099-171400-
WEST-CENTRAL ILLINOIS

CITY           SKY/WX    TMP DP  RH WIND       PRES   REMARKS
QUINCY         CLOUDY    54  51  90 SE6       30.01R
GALESBURG*     PTSUNNY   50  49  95 E3        30.02F
MACOMB*        CLOUDY    49  49 100 E3        30.04S FOG
JACKSONVILLE*  MOSUNNY   52  51  95 SE5       30.03F FOG
PITTSFIELD*    CLOUDY    53  51  94 CALM      30.03F FOG
$$

ILZ028>032-037-038-041>044-048-051>054-059>061-171400-
CENTRAL ILLINOIS

CITY           SKY/WX    TMP DP  RH WIND       PRES   REMARKS
DECATUR        SUNNY     50  48  93 E3        30.04F FOG
PEORIA         PTSUNNY   53  49  86 S6        30.03F
LACON*         MOSUNNY   50  49  97 CALM      30.03S
LINCOLN*       MOSUNNY   51  49  95 CALM      30.02F FOG
SPRINGFIELD    PTSUNNY   52  50  93 CALM      30.05R FOG
TAYLORVILLE    SUNNY     50  50 100 E5        30.02F FOG
$$

ILZ033-039-045-046-055>057-062-063-171400-
EAST-CENTRAL ILLINOIS

CITY           SKY/WX    TMP DP  RH WIND       PRES   REMARKS
CHAMPAIGN      MOSUNNY   49  48  97 CALM      30.06S FOG
DANVILLE*      SUNNY     48  48 100 CALM      30.04F FOG
RANTOUL*       MOSUNNY   49  47  91 CALM      30.06F FOG
MATTOON        SUNNY     50  49  96 CALM      30.06F FOG
PARIS*         MOSUNNY   48  48 100 CALM      30.08S FOG
$$

ILZ079-100>102-171400-
SOUTHWEST ILLINOIS

CITY           SKY/WX    TMP DP  RH WIND       PRES   REMARKS
ALTON          MOSUNNY   50  48  93 CALM      30.04R
BELLEVILLE     MOSUNNY   49  49 100 CALM      30.04R FOG
CAHOKIA*       SUNNY     54  52  93 CALM      30.02F
SPARTA*        SUNNY     51  50  95 CALM      30.05R
$$

ILZ064>066-069>071-074>076-080>082-084>086-088>090-092>094-171400-
SOUTH-CENTRAL ILLINOIS

CITY           SKY/WX    TMP DP  RH WIND       PRES   REMARKS
CARBONDALE     MOSUNNY   48  47  96 SE3       30.04R FOG
CAIRO*         SUNNY     53  51  94 CALM      30.03F FOG
EFFINGHAM*     RAIN      49  47  93 CALM      30.06F
MARION         SUNNY    N/A N/A N/A SE6       30.05F FOG
MT. VERNON     SUNNY     48  45  87 CALM      30.05F
CENTRALIA*     PTSUNNY   48  47  94 CALM      30.03F FOG
METROPOLIS*    SUNNY     51  51 100 CALM      30.05R FOG
$$

ILZ067-068-072-073-078-083-087-091-171400-
SOUTHEAST ILLINOIS

CITY           SKY/WX    TMP DP  RH WIND       PRES   REMARKS
LAWRENCEVILLE  MOSUNNY   49  49 100 CALM      30.08S FOG
FLORA*         FOG       46  46 100 CALM      30.06F VSB 1/4
FAIRFIELD*     PTSUNNY  N/A N/A N/A CALM      30.06S FOG
ROBINSON*      SUNNY     48  48  99 CALM      30.09S FOG
CARMI*         SUNNY     49  49 100 CALM      30.06F FOG
$$

ABBREVIATIONS USED IN REMARKS
   TC - TEMPERATURE IN CELSIUS
  WCI - WIND CHILL INDEX
   HX - HEAT INDEX
  VSB - VISIBILITY
$$




USA.gov is the U.S. government's official web portal to all federal, state and local government web resources and services.